TimeAST,TemperatureF,Dew PointF,Humidity,Sea Level PressureIn,VisibilityMPH,Wind Direction,Wind SpeedMPH,Gust SpeedMPH,PrecipitationIn,Events,Conditions,WindDirDegrees,DateUTC
12:00 AM,80.6,73.4,79,29.98,6.2,East,15.0,-,N/A,,Partly Cloudy,90,2013-07-05 04:00:00
1:00 AM,80.6,73.4,79,29.95,6.2,East,10.4,-,N/A,,Partly Cloudy,90,2013-07-05 05:00:00
2:00 AM,79,74,81,29.96,7,East,13.8,,,,Widespread Dust,80,2013-07-05 06:00:00
2:00 AM,78.8,73.4,83,29.95,6.2,East,13.8,-,N/A,,Partly Cloudy,80,2013-07-05 06:00:00
3:00 AM,78.8,75.2,89,29.92,6.2,East,11.5,-,N/A,,Scattered Clouds,90,2013-07-05 07:00:00
4:00 AM,78.8,75.2,89,29.92,6.2,East,13.8,-,N/A,,Scattered Clouds,90,2013-07-05 08:00:00
5:00 AM,77,73,85,29.95,7,ENE,9.2,,,,Widespread Dust,70,2013-07-05 09:00:00
5:00 AM,77.0,73.4,89,29.95,6.2,ENE,9.2,-,N/A,,Partly Cloudy,70,2013-07-05 09:00:00
6:00 AM,77.0,75.2,94,29.95,6.2,East,10.4,-,N/A,,Partly Cloudy,80,2013-07-05 10:00:00
7:00 AM,80.6,75.2,84,29.98,6.2,ENE,9.2,-,N/A,,Partly Cloudy,70,2013-07-05 11:00:00
8:00 AM,82,75,74,30.00,9,East,17.3,,,,Widespread Dust,80,2013-07-05 12:00:00
8:00 AM,82.4,75.2,79,29.98,6.2,East,17.3,-,N/A,,Scattered Clouds,80,2013-07-05 12:00:00
9:00 AM,84.2,75.2,74,29.98,6.2,East,11.5,-,N/A,,Scattered Clouds,90,2013-07-05 13:00:00
10:00 AM,84.2,75.2,74,29.98,6.2,ESE,11.5,-,N/A,,Scattered Clouds,120,2013-07-05 14:00:00
11:00 AM,84,76,71,30.00,9,ESE,17.3,,,,Widespread Dust,110,2013-07-05 15:00:00
11:00 AM,84.2,77.0,79,29.98,6.2,ESE,17.3,-,N/A,,Scattered Clouds,110,2013-07-05 15:00:00
12:00 PM,84.2,77.0,79,29.98,6.2,ESE,20.7,-,N/A,Rain,Light Rain Showers,120,2013-07-05 16:00:00
1:00 PM,84.2,75.2,74,29.98,6.2,ESE,11.5,-,N/A,,Mostly Cloudy,120,2013-07-05 17:00:00
2:00 PM,85,76,67,29.96,8,ESE,16.1,,,,Widespread Dust,120,2013-07-05 18:00:00
2:00 PM,86.0,75.2,70,29.95,6.2,ESE,16.1,-,N/A,,Scattered Clouds,120,2013-07-05 18:00:00
3:00 PM,84.2,75.2,74,29.92,6.2,SSE,11.5,-,N/A,,Partly Cloudy,150,2013-07-05 19:00:00
4:00 PM,84.2,75.2,74,29.92,6.2,SSE,12.7,-,N/A,,Partly Cloudy,150,2013-07-05 20:00:00
5:00 PM,84.2,75.2,74,29.92,6.2,SSE,11.5,-,N/A,,Partly Cloudy,150,2013-07-05 21:00:00
6:00 PM,82.4,73.4,74,29.92,6.2,East,9.2,-,N/A,,Partly Cloudy,100,2013-07-05 22:00:00
7:00 PM,80.6,73.4,79,29.92,6.2,East,6.9,-,N/A,,Partly Cloudy,100,2013-07-05 23:00:00
8:00 PM,79,74,80,29.95,12,East,6.9,,,,Widespread Dust,80,2013-07-06 00:00:00
8:00 PM,78.8,73.4,83,29.95,6.2,East,6.9,-,N/A,,Scattered Clouds,80,2013-07-06 00:00:00
9:00 PM,78.8,73.4,83,29.95,6.2,Calm,Calm,-,N/A,,Partly Cloudy,0,2013-07-06 01:00:00
10:00 PM,77.0,73.4,89,29.98,6.2,Calm,Calm,-,N/A,,Partly Cloudy,0,2013-07-06 02:00:00
11:00 PM,77,74,87,29.99,11,East,3.5,,,,Widespread Dust,90,2013-07-06 03:00:00
11:00 PM,77.0,73.4,89,29.98,6.2,East,3.5,-,N/A,,Partly Cloudy,80,2013-07-06 03:00:00